Regional Weather Roundup
Issued by NWS Boston, MA

Current Version | Previous Version | Text Only | Print | Product List | Glossary On
Versions: 1 2 3 4 5 6 7 8 9 10 11 12 13 14 15 16 17 18 19 20 21 22 23 24 25 26 27 28 29 30 31 32 33 34 35 36 37 38 39 40 41 42 43 44 45 46 47 48
000
ASUS41 KBOX 291110
RWRBOX

REGIONAL WEATHER ROUNDUP
NATIONAL WEATHER SERVICE TAUNTON MA
700 AM EDT WED JUL 29 2015

NOTE:  "FAIR" INDICATES FEW OR NO CLOUDS BELOW 12,000 FEET WITH NO
SIGNIFICANT WEATHER AND/OR OBSTRUCTIONS TO VISIBILITY.  THE FOLLOWING
OBSERVATION LOCATIONS DO NOT REPORT PRESENT WEATHER...PROVINCETOWN...
SMITHFIELD...BLOCK ISLAND...KEENE...AND OXFORD.

MAZALL-291200-
EASTERN MASSACHUSETTS

CITY           SKY/WX    TMP DP  RH WIND       PRES   REMARKS
BOSTON         MOSUNNY   76  67  73 W3        29.95S
BEVERLY        MOSUNNY   71  67  87 CALM      29.95R
LAWRENCE       SUNNY     71  67  87 SW5       29.98R
BEDFORD        SUNNY     68  66  93 CALM      29.95S
BLUE HILL        N/A     71  65  81 NW9       29.97S
NORWOOD        MOSUNNY   67  65  93 CALM      29.96S
MARSHFIELD     SUNNY     72  70  94 W3        29.97R
PLYMOUTH       SUNNY     70  69  97 CALM      29.96R
TAUNTON        SUNNY     66  64  93 CALM      29.96S
NEW BEDFORD    SUNNY     67  65  93 CALM      29.96R
$$

MAZALL-291200-
CAPE COD AND THE ISLANDS

CITY           SKY/WX    TMP DP  RH WIND       PRES   REMARKS
FALMOUTH       SUNNY     70  70 100 CALM      29.96S FOG
HYANNIS          N/A     70  67  90 CALM      29.95R
CHATHAM        SUNNY     72  70  93 CALM      29.96R
PROVINCETOWN   SUNNY     70  64  83 W3        29.96R
NANTUCKET      SUNNY     74  71  91 NW6       29.95S
MARTHAS VNYRD  SUNNY     69  67  93 CALM      29.96R
$$

MAZALL-291200-
CENTRAL AND WESTERN MASSACHUSETTS

CITY           SKY/WX    TMP DP  RH WIND       PRES   REMARKS
WORCESTER      SUNNY     73  63  70 W10       30.01R
FITCHBURG      SUNNY     73  66  78 CALM      29.98R
ORANGE         FOG       65  65 100 CALM      30.00R VSB<1/4
SPRINGFIELD    SUNNY     66  65  97 NE2       29.97R
WESTFIELD      FOG       67  65  93 CALM      29.98R VSB 1/2
NORTH ADAMS    SUNNY     63  61  93 CALM      30.03R
PITTSFIELD     SUNNY     64  61  90 CALM      30.02S FOG
$$

RIZALL-291200-
RHODE ISLAND

CITY           SKY/WX    TMP DP  RH WIND       PRES   REMARKS
PROVIDENCE     MOSUNNY   73  69  87 CALM      29.97R
NEWPORT        SUNNY     72  70  93 CALM      29.97R
BLOCK ISLAND   MOSUNNY   75  70  83 NW3       29.98R
SMITHFIELD     MOSUNNY   70  70 100 CALM      29.98R
WESTERLY       SUNNY     70  67  90 CALM      29.97R
$$

CTZALL-291200-
CONNECTICUT

CITY           SKY/WX    TMP DP  RH WIND       PRES   REMARKS
BRADLEY INTL   PTSUNNY   71  65  81 CALM      29.97R
HARTFORD       SUNNY     72  69  90 CALM      29.97R
BRIDGEPORT     SUNNY     75  70  84 CALM      29.97R
DANBURY        SUNNY     68  64  87 CALM      30.01R FOG
GROTON         SUNNY     73  69  87 CALM      29.96R
NEW HAVEN      MOSUNNY   72  70  93 CALM      29.97R
CHESTER        NOT AVBL
MERIDEN        SUNNY     71  67  87 CALM      29.98R
WILLIMANTIC    SUNNY     68  65  90 CALM      29.98R
OXFORD         PTSUNNY   72  63  73 CALM      30.01S
$$

MEZ002-015-021-024-NHZ003-005-008-011-012-014-VTZ005-008-291200-
NORTHERN NEW ENGLAND

CITY           SKY/WX    TMP DP  RH WIND       PRES   REMARKS
PORTLAND ME    MOSUNNY   69  66  90 CALM      29.95R
BANGOR ME      MOSUNNY   64  63  96 CALM      29.94S
CONCORD NH     SUNNY     67  64  90 CALM      29.97S
MANCHESTER NH  MOSUNNY   70  65  84 CALM      29.96R
NASHUA NH      SUNNY     68  64  88 NW3       29.98
PORTSMOUTH NH  PTSUNNY   69  67  94 W2        29.94S
JAFFREY NH     SUNNY     64  62  93 CALM      30.01R
KEENE NH       SUNNY     63  57  82 CALM      30.00S
BURLINGTON VT  PTSUNNY   70  64  81 E3        29.97S
MT. WASHINGTON FOG       54  54 100 NW29G36     N/A  VSB 0
$$

NYZ052-076-291200-
EASTERN NEW YORK

CITY           SKY/WX    TMP DP  RH WIND       PRES   REMARKS
ALBANY         PTSUNNY   69  64  84 CALM      30.00R
NEW YORK CITY  PTSUNNY   79  67  66 NW5       29.97R
$$

ANZALL-291200-
MARINE OBSERVATIONS

STATION/POSITION TIME  TEMP    WIND        PRES    VSBY  WAVE
                       AIR SEA DIR/SP/G                  HT/PER
                 (UTC) (F)     (DEG/KT/KT) (MB)    (MI)  (FT/S)
BOSTON BUOY      1050   71 69  280/  6/  8 1014.5R         1/ 9
BUZZARDS BAY     1000           CALM  /  1 1015.0R
NANTUCKET SOUND  1050   73 73  260/  6/  6 1014.0R         0
MASS BAY-STELLWA 1004   71 69  220/  2/  2   N/A    1 7/8  1/11
ISLE OF SHOALS   1000   72     320/  9/  9 1013.4R
S OF BLOCK IS    1008      72                N/A           2/11
$$

......................KEY.........................
  SKY/WX - SKY CONDITION/PRESENT WEATHER
  TMP    - TEMPERATURE IN FAHRENHEIT
  DWPT   - DEWPOINT IN FAHRENHEIT
  RH     - RELATIVE HUMIDITY IN PERCENT
  WIND   - DIRECTION AND SPEED IN MPH
  PRES   - MEAN SEA LEVEL PRESSURE IN INCHES OF HG
  WCI    - WIND CHILL INDEX
  VSB    - VISIBILITY IN MILES
  HX     - HEAT INDEX
  TC     - TEMPERATURE IN CELSIUS
  VRB    - VARIABLE WIND DIRECTION
  N/A    - NOT AVAILABLE



USA.gov is the U.S. government's official web portal to all federal, state and local government web resources and services.